Wind_Speed
9 8 8 8 7 7 7 7 8 7 7 7 8 8 9 10 11 11 11 11 11 12 12 12 13 13 14 14 14 14 14 14 14 14 15 15 15 15 15 15 16 17 17
10 10 9 9 9 9 9 9 9 9 9 9 9 10 11 12 12 13 13 13 13 13 14 14 15 15 16 16 16 16 16 15 15 15 16 16 16 16 16 17 17 17 17
12 12 11 10 10 10 10 10 10 11 11 11 11 12 13 14 14 14 14 14 14 15 15 16 16 17 17 17 17 17 17 17 17 17 17 17 17 17 17 18 17 18 18
13 13 12 12 11 12 12 12 12 12 13 13 14 14 14 15 15 15 15 16 16 16 16 17 17 18 19 19 19 19 19 19 19 19 18 18 18 18 18 18 19 19 19
15 15 14 14 14 14 14 14 14 14 15 15 16 16 16 17 17 17 18 18 18 18 18 18 19 19 20 20 20 20 20 20 20 20 20 19 20 20 20 20 20 20 20
17 18 17 16 15 15 15 16 16 16 17 17 18 19 19 18 19 19 19 19 19 19 20 20 20 21 22 22 21 21 21 21 22 22 22 21 21 21 21 22 22 21 21
19 19 19 19 17 17 18 18 18 19 19 20 21 21 21 21 20 21 21 21 22 21 22 22 22 23 23 24 23 23 23 23 23 24 23 23 22 22 22 23 23 23 23
20 20 21 21 20 20 21 21 21 21 21 21 22 22 23 23 23 23 24 24 24 24 25 25 25 26 25 25 25 25 25 25 25 25 24 24 23 24 24 24 24 24 25
22 23 23 23 23 23 23 24 24 23 23 23 23 24 24 24 24 25 25 26 26 27 27 27 27 27 27 26 26 26 26 26 26 26 26 26 25 25 25 26 26 26 26
24 24 25 25 25 25 25 25 25 26 26 26 25 26 26 26 26 27 27 27 28 28 28 28 28 28 28 27 27 27 27 27 27 27 27 27 27 27 27 27 27 27 26
26 26 26 26 27 27 28 28 28 27 27 27 27 27 27 28 28 29 29 29 29 29 29 29 29 29 29 29 28 28 29 29 28 28 29 28 28 29 28 28 29 28 28
27 28 27 27 29 29 29 29 29 29 29 29 29 30 30 30 30 30 30 30 31 31 30 30 30 30 30 29 29 29 29 29 29 29 30 30 30 29 29 29 29 29 29
29 30 30 30 30 30 30 30 30 30 31 31 32 32 31 31 32 32 32 32 32 32 31 31 31 31 31 31 30 30 30 30 30 30 30 30 30 30 30 30 30 30 30
30 31 32 32 32 31 31 32 32 32 33 33 33 33 33 33 33 34 33 33 32 32 32 32 32 32 32 31 31 31 31 32 31 31 30 30 30 31 31 31 31 31 31
32 32 32 33 33 33 33 33 33 34 34 34 34 34 34 34 34 35 34 34 34 34 34 33 32 32 32 32 32 32 33 33 32 32 31 31 32 32 32 32 32 32 32
33 34 34 34 34 34 35 35 35 35 35 35 35 35 35 36 35 34 35 35 35 35 35 35 34 34 33 33 33 34 34 34 33 33 33 33 33 33 33 33 32 32 32
34 35 35 35 35 36 36 36 37 36 36 36 36 36 36 35 35 35 36 36 36 35 35 35 35 35 34 34 34 34 34 34 34 33 33 33 33 33 33 33 32 32 32
34 35 35 35 36 36 36 36 36 36 35 35 36 36 36 36 37 38 38 37 37 36 36 35 35 35 35 35 35 35 34 33 33 32 32 32 32 33 33 33 33 33 33
34 34 34 35 35 34 35 34 34 34 35 35 35 35 36 36 37 38 38 38 37 37 37 36 36 35 35 35 34 34 34 34 34 34 33 33 33 34 34 34 34 33 32
32 32 33 33 33 34 34 34 34 34 35 35 35 35 35 36 36 36 36 36 36 37 37 36 35 34 34 34 34 34 34 34 34 34 34 33 34 34 34 33 33 33 33
32 33 33 34 33 33 33 33 33 34 34 34 35 34 34 34 35 35 35 34 34 34 35 35 34 34 34 34 34 34 33 33 33 33 33 33 33 33 33 33 33 33 33
33 32 33 33 32 32 32 32 32 32 33 34 34 33 33 33 33 33 33 33 33 33 34 34 33 33 34 34 33 33 33 32 32 32 33 33 33 33 33 33 34 34 33
31 31 32 32 31 32 32 33 33 33 33 33 33 33 32 32 32 31 31 31 32 32 33 32 32 32 33 33 33 32 32 32 32 33 33 33 33 33 33 33 33 33 32
31 31 31 32 32 33 33 34 33 33 33 33 32 32 31 31 31 30 31 31 32 32 32 32 32 32 32 32 32 32 32 32 33 33 33 33 32 32 33 33 32 32 32
31 31 32 32 33 33 34 34 33 32 32 32 31 31 30 30 30 30 31 32 33 32 31 31 31 31 31 31 31 31 31 32 33 33 33 32 33 32 32 32 32 32 33
31 31 32 32 32 33 33 33 32 31 31 31 30 30 30 31 31 31 31 32 32 32 32 31 31 30 31 31 31 31 31 31 32 32 32 32 32 33 33 33 33 33 33
Wind_Direction
272 273 275 276 276 283 287 293 298 292 290 292 296 300 304 306 306 304 304 305 303 303 302 305 308 310 311 310 310 312 313 311 310 308 307 307 307 306 306 303 302 302 303
271 270 274 276 275 280 286 291 295 293 290 292 295 297 299 303 304 303 302 302 299 300 302 303 304 306 309 309 308 309 311 309 307 307 305 305 306 308 305 305 303 301 300
268 268 270 274 274 279 284 287 289 291 289 290 293 293 295 298 299 300 299 298 297 298 300 299 300 302 306 306 305 305 305 306 305 304 303 304 303 304 305 305 305 305 305
266 269 269 271 275 279 281 284 285 287 288 289 290 291 291 293 295 296 295 295 296 298 299 299 299 300 301 302 302 300 299 301 302 302 302 301 301 300 301 303 304 304 305
265 269 270 269 271 275 279 281 284 286 287 289 290 291 291 292 293 293 292 293 295 295 296 298 299 299 300 300 300 298 297 298 299 300 300 300 299 299 298 299 301 301 302
266 269 271 270 270 273 276 278 281 286 287 287 287 288 289 291 292 291 292 292 293 292 293 294 295 297 298 296 296 295 294 295 296 297 297 297 297 296 296 296 297 297 299
266 267 267 268 270 272 274 276 279 282 284 285 285 286 287 290 292 292 293 292 293 292 292 292 293 295 296 295 294 291 291 292 294 294 294 294 293 293 294 295 295 295 296
270 269 268 273 273 274 275 277 278 279 281 284 286 286 287 288 290 290 292 292 291 291 291 291 293 293 294 293 291 290 290 291 291 292 291 291 292 293 293 293 295 295 295
273 274 276 278 278 277 277 279 280 281 282 284 285 286 286 287 289 288 288 289 290 290 290 290 290 292 292 291 290 289 289 290 290 290 290 290 290 290 292 293 294 294 294
275 276 278 279 278 277 277 278 279 279 281 283 284 285 285 286 287 287 287 288 289 289 289 288 289 289 290 289 289 289 289 290 289 288 289 289 288 288 290 292 293 293 294
274 276 278 278 278 278 277 278 279 279 280 282 284 285 285 284 285 287 288 287 287 288 288 287 287 288 288 288 289 289 289 289 289 288 288 287 287 287 289 291 292 291 293
274 275 278 278 278 278 279 280 280 280 280 281 282 284 284 284 286 287 286 286 286 286 286 286 287 288 288 288 288 289 289 289 289 289 287 286 286 286 287 288 290 290 291
275 277 278 278 278 279 280 280 280 280 281 282 282 284 284 284 284 284 284 284 284 284 285 285 286 287 287 287 287 287 288 288 288 288 287 286 286 286 285 287 288 289 289
276 278 279 278 278 279 280 280 280 281 282 284 282 282 284 285 284 284 284 283 283 283 284 284 285 286 286 287 287 287 287 288 288 287 286 286 285 285 284 285 286 288 288
276 278 280 280 281 281 281 282 283 283 282 282 283 282 282 284 285 285 282 282 282 283 283 283 284 285 285 286 286 286 286 286 287 287 286 286 286 285 285 286 287 288 288
277 279 280 280 280 281 282 283 283 283 282 281 282 283 284 285 286 285 284 283 284 283 283 282 283 284 285 285 285 285 285 285 285 285 286 286 286 285 285 285 287 287 288
275 277 279 279 280 282 283 284 284 283 281 282 282 282 284 285 285 285 284 284 284 284 283 283 283 284 284 284 284 285 285 285 285 285 286 285 285 285 284 285 286 287 287
275 277 279 280 281 283 284 284 284 285 285 285 284 283 283 284 284 284 284 283 283 284 285 285 284 284 283 283 284 284 283 284 284 283 283 283 283 285 286 285 284 285 286
275 277 279 280 282 284 285 285 286 287 287 288 287 286 285 286 286 286 285 284 283 284 285 286 287 287 286 284 283 283 282 283 283 282 282 281 282 283 286 286 286 285 285
275 277 279 281 282 283 285 286 287 288 288 288 288 287 287 288 287 287 286 285 284 284 284 286 286 286 285 284 283 283 283 282 282 282 282 282 282 282 283 284 284 284 285
277 277 279 280 281 282 284 286 287 288 288 289 289 288 288 287 288 287 286 285 285 285 285 286 286 286 284 284 285 285 284 283 283 283 283 283 283 283 283 284 284 283 283
276 277 278 279 281 282 284 286 288 289 289 289 288 288 288 288 287 287 286 286 286 286 287 288 287 286 284 284 284 284 283 283 283 282 282 282 283 283 284 283 283 282 281
276 277 276 277 279 282 284 287 288 288 288 288 288 288 287 287 287 287 287 287 286 286 287 288 288 287 285 284 284 284 284 282 282 281 282 281 282 282 283 284 284 284 283
276 276 277 279 281 283 285 288 289 289 289 289 289 287 287 288 287 287 287 287 286 286 288 288 288 288 287 285 284 284 284 283 282 281 281 280 280 282 283 284 284 284 284
277 278 279 281 282 284 285 287 288 288 289 289 288 287 287 287 287 287 287 288 288 287 288 288 287 286 286 286 285 285 284 284 283 283 283 282 282 282 282 282 283 283 284
278 279 280 282 284 284 286 287 288 289 288 288 288 287 287 287 287 287 287 287 288 289 289 289 288 287 287 286 286 284 283 283 283 283 284 283 283 282 282 281 282 283 282
Height
5900 5900 5900 5899 5898 5897 5896 5895 5894 5893 5892 5891 5890 5890 5889 5887 5886 5885 5883 5882 5881 5879 5878 5877 5875 5874 5872 5871 5869 5867 5865 5863 5862 5860 5858 5856 5855 5853 5851 5849 5847 5845 5843
5898 5898 5897 5897 5896 5895 5894 5893 5892 5891 5890 5889 5888 5887 5886 5885 5883 5882 5881 5879 5878 5876 5875 5874 5872 5871 5869 5867 5866 5864 5862 5860 5858 5857 5855 5853 5851 5849 5847 5845 5843 5840 5839
5895 5895 5894 5894 5893 5893 5892 5891 5890 5889 5888 5886 5885 5884 5883 5882 5880 5879 5877 5876 5874 5873 5872 5870 5869 5867 5865 5863 5862 5860 5858 5856 5854 5853 5851 5849 5847 5845 5843 5841 5838 5836 5834
5892 5892 5891 5891 5891 5890 5889 5888 5887 5886 5885 5884 5882 5881 5880 5878 5877 5875 5874 5872 5871 5869 5868 5866 5865 5863 5861 5859 5858 5856 5854 5852 5850 5848 5846 5845 5842 5840 5838 5836 5834 5832 5830
5888 5888 5888 5887 5887 5886 5885 5884 5883 5882 5881 5880 5879 5877 5876 5875 5873 5871 5870 5868 5867 5865 5864 5862 5860 5859 5857 5855 5853 5851 5849 5848 5846 5844 5842 5840 5838 5835 5833 5831 5829 5827 5825
5884 5883 5883 5883 5882 5882 5881 5880 5879 5877 5876 5876 5874 5873 5872 5870 5869 5867 5865 5864 5862 5861 5859 5857 5855 5854 5852 5850 5848 5846 5844 5843 5841 5839 5837 5835 5833 5830 5828 5826 5824 5822 5820
5878 5878 5878 5878 5877 5877 5876 5875 5874 5872 5871 5870 5869 5868 5867 5865 5864 5862 5860 5859 5857 5855 5853 5851 5850 5848 5846 5844 5842 5840 5838 5837 5835 5833 5831 5829 5827 5825 5822 5820 5818 5816 5814
5873 5873 5873 5872 5871 5871 5870 5869 5868 5867 5866 5865 5863 5862 5861 5859 5858 5856 5854 5852 5851 5849 5847 5845 5843 5841 5839 5837 5835 5833 5832 5830 5828 5826 5825 5823 5821 5818 5816 5814 5812 5810 5807
5868 5868 5867 5866 5866 5865 5865 5864 5863 5861 5860 5859 5857 5856 5854 5852 5851 5849 5847 5845 5843 5842 5840 5838 5836 5834 5832 5830 5828 5826 5825 5823 5821 5819 5817 5816 5814 5812 5810 5807 5805 5802 5800
5862 5861 5861 5860 5859 5859 5858 5857 5856 5855 5853 5852 5851 5849 5847 5845 5844 5842 5840 5838 5836 5834 5832 5830 5828 5827 5825 5823 5821 5819 5817 5815 5813 5811 5810 5808 5806 5804 5802 5800 5798 5795 5793
5855 5855 5854 5853 5852 5852 5851 5850 5849 5848 5846 5845 5843 5841 5839 5837 5836 5834 5832 5830 5828 5826 5824 5822 5820 5819 5817 5815 5813 5811 5809 5808 5806 5804 5802 5800 5798 5797 5795 5793 5790 5788 5786
5848 5847 5846 5846 5845 5844 5843 5842 5841 5839 5838 5837 5835 5833 5831 5829 5827 5825 5823 5821 5819 5818 5816 5814 5812 5810 5808 5806 5804 5803 5801 5799 5797 5795 5793 5792 5790 5789 5787 5785 5783 5780 5778
5840 5839 5838 5838 5837 5835 5835 5834 5832 5831 5830 5828 5826 5824 5822 5820 5819 5817 5814 5812 5810 5808 5807 5805 5803 5801 5800 5798 5796 5794 5792 5790 5788 5786 5785 5783 5782 5780 5778 5776 5774 5772 5769
5831 5831 5830 5829 5827 5826 5826 5825 5823 5822 5821 5819 5817 5815 5813 5811 5809 5807 5805 5803 5801 5799 5798 5796 5794 5792 5790 5789 5787 5785 5783 5781 5779 5778 5776 5774 5772 5771 5769 5767 5765 5763 5761
5822 5822 5821 5819 5818 5818 5817 5815 5813 5813 5811 5809 5807 5805 5804 5802 5800 5797 5795 5793 5791 5790 5787 5786 5784 5783 5781 5779 5777 5776 5774 5772 5770 5768 5767 5765 5763 5761 5760 5758 5756 5754 5752
5813 5812 5811 5811 5809 5808 5807 5805 5804 5802 5801 5798 5797 5795 5794 5792 5789 5787 5785 5783 5781 5779 5777 5775 5774 5772 5771 5769 5767 5766 5764 5762 5760 5758 5757 5756 5754 5752 5750 5748 5746 5744 5742
5804 5803 5802 5801 5799 5798 5796 5795 5793 5791 5789 5787 5786 5785 5783 5781 5779 5776 5774 5773 5770 5768 5766 5765 5763 5762 5760 5758 5757 5755 5754 5752 5750 5748 5747 5746 5744 5742 5740 5738 5737 5735 5733
5794 5793 5792 5790 5789 5788 5786 5784 5782 5780 5779 5777 5775 5773 5771 5769 5767 5765 5763 5761 5760 5758 5756 5754 5752 5751 5749 5747 5746 5744 5743 5741 5740 5738 5737 5736 5734 5733 5731 5729 5727 5725 5723
5784 5783 5782 5780 5779 5777 5776 5774 5772 5770 5768 5766 5764 5762 5760 5758 5756 5753 5751 5750 5748 5747 5745 5743 5741 5740 5738 5737 5735 5733 5732 5731 5729 5728 5727 5726 5725 5723 5721 5719 5717 5715 5714
5774 5773 5772 5770 5769 5767 5766 5764 5762 5760 5757 5755 5753 5751 5749 5746 5744 5742 5740 5738 5737 5735 5734 5732 5730 5729 5727 5726 5724 5723 5721 5720 5719 5718 5717 5715 5714 5712 5711 5709 5708 5706 5704
5764 5763 5762 5761 5759 5757 5755 5753 5751 5749 5747 5745 5743 5740 5737 5735 5733 5731 5729 5728 5726 5724 5723 5721 5720 5718 5716 5715 5713 5712 5711 5709 5708 5707 5706 5705 5704 5702 5701 5699 5698 5696 5694
5754 5753 5752 5751 5749 5748 5746 5744 5741 5739 5737 5735 5732 5729 5727 5725 5723 5721 5719 5717 5716 5714 5712 5710 5709 5707 5706 5704 5703 5701 5700 5699 5698 5697 5696 5694 5693 5692 5690 5689 5687 5686 5684
5744 5743 5742 5741 5739 5738 5736 5734 5732 5729 5727 5724 5722 5720 5717 5715 5713 5711 5709 5707 5706 5704 5702 5700 5698 5697 5695 5693 5692 5691 5690 5689 5687 5686 5685 5684 5682 5681 5680 5679 5677 5676 5674
5735 5734 5733 5731 5730 5728 5726 5724 5721 5719 5716 5714 5712 5710 5708 5706 5704 5702 5700 5698 5696 5694 5692 5690 5688 5687 5685 5683 5682 5681 5680 5678 5677 5675 5674 5673 5672 5670 5669 5668 5667 5665 5664
5725 5724 5723 5721 5720 5718 5716 5714 5711 5709 5706 5704 5702 5700 5698 5696 5694 5692 5690 5688 5686 5684 5682 5680 5678 5676 5675 5674 5672 5671 5670 5668 5666 5665 5663 5662 5661 5660 5659 5657 5656 5655 5654
5715 5714 5713 5711 5709 5707 5705 5703 5701 5699 5697 5695 5693 5690 5689 5687 5685 5683 5681 5679 5677 5675 5673 5671 5669 5667 5665 5664 5663 5661 5660 5659 5657 5655 5653 5652 5651 5650 5648 5647 5646 5645 5643